Location: ?????
(33.6267°N, 35.4675°E)
Time: 10:13:25
(UTC+00:00)

NOSS 3-1 (C) - Pass Details

Date: 12 November 2019
Orbit: 765 x 1444 km, 63.4° (Epoch: 11 December)

Event Time Altitude Azimuth Distance (km) Brightness Sun altitude
Rises 14:53:22 0° 190° (S) 3,217 6.7 -3.9°
Reaches altitude 10° 14:55:46 10° 184° (S) 2,315 5.8 -4.4°
Maximum altitude 15:00:42 43° 113° (ESE) 1,140 3.6 -5.4°
Drops below altitude 10° 15:06:10 10° 44° (NE) 2,565 5.2 -6.5°
Enters shadow 15:08:27 - 39° (NE) 3,417 5.9 -6.9°
